When you browse on this site, cookies collect data to enhance your experience and personalize the content and advertising you see.
Visit our Privacy Policy to learn more. By continuing to use the site, you agree to this use of cookies and data.
  • In Czech Republic
  • List of Countries
  • For 7 days
  • Water Temperature
  • Satellite Maps
  • Weather Map
  • Weather Widgets
  • user-avatar
    Login

    Hourly Weather Nanning

    Today, 25 March, Monday

    Time Temperature Precipitation Wind Pressure Humidity
    00:00 +15°C° 0.1 mm 2 mps 756 mmHg 69%
    01:00 +15°C° 0 mm 2 mps 756 mmHg 69%
    02:00 +15°C° 0 mm 2 mps 756 mmHg 69%
    03:00 +15°C° 0 mm 1 mps 755 mmHg 70%
    04:00 +15°C° 0 mm 1 mps 755 mmHg 70%
    05:00 +15°C° 0 mm 1 mps 756 mmHg 70%
    06:00 +15°C° 0 mm 1 mps 756 mmHg 70%
    07:00 +15°C° 0 mm 1 mps 757 mmHg 67%
    08:00 +16°C° 0 mm 1 mps 757 mmHg 63%
    09:00 +18°C° 0 mm 1 mps 757 mmHg 60%
    10:00 +19°C° 0 mm 1 mps 757 mmHg 57%
    11:00 +22°C° 0 mm 1 mps 756 mmHg 54%
    12:00 +24°C° 0 mm 1 mps 755 mmHg 51%
    13:00 +26°C° 0 mm 1 mps 755 mmHg 47%
    14:00 +26°C° 0 mm 2 mps 754 mmHg 48%
    15:00 +27°C° 0 mm 2 mps 753 mmHg 49%
    16:00 +28°C° 0 mm 3 mps 753 mmHg 49%
    17:00 +26°C° 0 mm 3 mps 753 mmHg 55%
    18:00 +25°C° 0 mm 3 mps 753 mmHg 61%
    19:00 +24°C° 0 mm 3 mps 753 mmHg 67%
    20:00 +24°C° 0 mm 3 mps 753 mmHg 71%
    21:00 +22°C° 0 mm 3 mps 754 mmHg 75%
    22:00 +22°C° 0 mm 3 mps 754 mmHg 79%
    23:00 +21°C° 0 mm 3 mps 754 mmHg 81%

    Tomorrow, 26 March, Tuesday

    Time Temperature Precipitation Wind Pressure Humidity
    00:00 +21°C° 0 mm 3 mps 754 mmHg 82%
    01:00 +21°C° 0 mm 2 mps 754 mmHg 83%
    02:00 +21°C° 0 mm 3 mps 754 mmHg 85%
    03:00 +21°C° 0 mm 3 mps 754 mmHg 87%
    04:00 +21°C° 0 mm 3 mps 754 mmHg 89%
    05:00 +21°C° 0.1 mm 3 mps 754 mmHg 89%
    06:00 +21°C° 0.1 mm 3 mps 754 mmHg 90%
    07:00 +22°C° 0.1 mm 3 mps 755 mmHg 91%
    08:00 +22°C° 0.1 mm 3 mps 755 mmHg 89%
    09:00 +23°C° 0.1 mm 4 mps 755 mmHg 86%
    10:00 +25°C° 0.1 mm 4 mps 755 mmHg 84%
    11:00 +25°C° 0.1 mm 4 mps 755 mmHg 82%
    12:00 +25°C° 0.1 mm 4 mps 755 mmHg 80%
    13:00 +26°C° 0.1 mm 4 mps 754 mmHg 79%
    14:00 +27°C° 0.1 mm 5 mps 754 mmHg 77%
    15:00 +27°C° 0.1 mm 5 mps 753 mmHg 75%
    16:00 +28°C° 0.1 mm 5 mps 753 mmHg 72%
    17:00 +27°C° 0 mm 5 mps 753 mmHg 76%
    18:00 +26°C° 0 mm 4 mps 753 mmHg 80%
    19:00 +25°C° 0 mm 4 mps 753 mmHg 83%
    20:00 +25°C° 0 mm 4 mps 754 mmHg 85%
    21:00 +25°C° 0 mm 4 mps 754 mmHg 86%
    22:00 +23°C° 0 mm 4 mps 755 mmHg 88%
    23:00 +23°C° 0 mm 4 mps 754 mmHg 88%

    Day after tomorrow, 27 March, Wednesday

    Time Temperature Precipitation Wind Pressure Humidity
    00:00 +23°C° 0 mm 4 mps 754 mmHg 89%
    01:00 +23°C° 0 mm 4 mps 754 mmHg 89%
    02:00 +23°C° 0.1 mm 4 mps 754 mmHg 89%
    03:00 +23°C° 0.1 mm 4 mps 753 mmHg 89%
    04:00 +23°C° 0.1 mm 4 mps 753 mmHg 89%
    05:00 +23°C° 0.1 mm 4 mps 753 mmHg 89%
    06:00 +23°C° 0.1 mm 4 mps 754 mmHg 90%
    07:00 +23°C° 0.1 mm 4 mps 754 mmHg 90%
    08:00 +25°C° 0.1 mm 4 mps 754 mmHg 87%
    09:00 +25°C° 0.1 mm 5 mps 755 mmHg 84%
    10:00 +26°C° 0.1 mm 5 mps 755 mmHg 82%
    11:00 +26°C° 0 mm 5 mps 754 mmHg 79%
    12:00 +27°C° 0 mm 6 mps 754 mmHg 76%
    13:00 +28°C° 0 mm 6 mps 753 mmHg 74%
    14:00 +28°C° 0 mm 6 mps 752 mmHg 73%
    15:00 +28°C° 0 mm 6 mps 752 mmHg 71%
    16:00 +28°C° 0 mm 6 mps 751 mmHg 70%
    17:00 +28°C° 0 mm 5 mps 751 mmHg 73%
    18:00 +27°C° 0 mm 5 mps 751 mmHg 76%
    19:00 +26°C° 0 mm 5 mps 752 mmHg 78%
    20:00 +26°C° 0 mm 5 mps 752 mmHg 79%
    21:00 +25°C° 0 mm 4 mps 752 mmHg 79%
    22:00 +25°C° 0 mm 4 mps 752 mmHg 79%
    23:00 +25°C° 0 mm 3 mps 752 mmHg 81%

    28 March, Thursday

    Time Temperature Precipitation Wind Pressure Humidity
    00:00 +25°C° 0 mm 3 mps 752 mmHg 83%
    01:00 +24°C° 0 mm 3 mps 751 mmHg 85%
    02:00 +24°C° 0 mm 3 mps 751 mmHg 86%
    03:00 +24°C° 0 mm 2 mps 751 mmHg 87%
    04:00 +24°C° 0 mm 2 mps 750 mmHg 89%
    05:00 +24°C° 0 mm 2 mps 751 mmHg 88%
    06:00 +24°C° 0 mm 2 mps 751 mmHg 88%
    07:00 +24°C° 0 mm 3 mps 751 mmHg 88%
    08:00 +25°C° 0.1 mm 3 mps 752 mmHg 87%
    09:00 +25°C° 0.1 mm 2 mps 752 mmHg 85%
    10:00 +25°C° 0.1 mm 2 mps 752 mmHg 84%
    11:00 +26°C° 0.1 mm 2 mps 752 mmHg 80%
    12:00 +27°C° 0.1 mm 2 mps 751 mmHg 77%
    13:00 +27°C° 0.1 mm 1 mps 750 mmHg 74%
    14:00 +27°C° 0.1 mm 1 mps 750 mmHg 74%
    15:00 +28°C° 0.1 mm 1 mps 749 mmHg 74%
    16:00 +28°C° 0.1 mm 1 mps 748 mmHg 74%
    17:00 +27°C° 0 mm 1 mps 749 mmHg 76%
    18:00 +27°C° 0 mm 2 mps 749 mmHg 78%
    19:00 +26°C° 0 mm 2 mps 749 mmHg 80%
    20:00 +26°C° 0 mm 2 mps 749 mmHg 82%
    21:00 +25°C° 0 mm 3 mps 749 mmHg 84%
    22:00 +25°C° 0 mm 3 mps 750 mmHg 86%
    23:00 +25°C° 0 mm 3 mps 749 mmHg 88%

    29 March, Friday

    Time Temperature Precipitation Wind Pressure Humidity
    00:00 +24°C° 0 mm 2 mps 749 mmHg 90%
    01:00 +24°C° 0 mm 2 mps 749 mmHg 92%
    02:00 +23°C° 0 mm 2 mps 749 mmHg 93%
    03:00 +23°C° 0 mm 2 mps 748 mmHg 94%
    04:00 +23°C° 0 mm 1 mps 748 mmHg 95%
    05:00 +23°C° 0 mm 2 mps 749 mmHg 93%
    06:00 +24°C° 0 mm 2 mps 749 mmHg 91%
    07:00 +24°C° 0 mm 2 mps 750 mmHg 89%
    08:00 +26°C° 0 mm 2 mps 750 mmHg 82%
    09:00 +27°C° 0 mm 2 mps 750 mmHg 76%
    10:00 +29°C° 0 mm 2 mps 751 mmHg 69%
    11:00 +29°C° 0 mm 2 mps 750 mmHg 67%
    12:00 +30°C° 0 mm 2 mps 750 mmHg 64%
    13:00 +31°C° 0 mm 3 mps 749 mmHg 61%
    14:00 +31°C° 0 mm 3 mps 749 mmHg 61%
    15:00 +31°C° 0 mm 3 mps 748 mmHg 61%
    16:00 +31°C° 0 mm 3 mps 748 mmHg 61%
    17:00 +30°C° 0 mm 3 mps 748 mmHg 66%
    18:00 +29°C° 0 mm 3 mps 748 mmHg 70%
    19:00 +28°C° 0 mm 3 mps 749 mmHg 75%
    20:00 +27°C° 0.2 mm 3 mps 749 mmHg 79%
    21:00 +26°C° 0.2 mm 3 mps 750 mmHg 83%
    22:00 +26°C° 0.2 mm 2 mps 750 mmHg 86%
    23:00 +25°C° 1.5 mm 2 mps 751 mmHg 88%

    30 March, Saturday

    Time Temperature Precipitation Wind Pressure Humidity
    00:00 +25°C° 1.5 mm 2 mps 751 mmHg 90%
    01:00 +24°C° 1.5 mm 2 mps 751 mmHg 91%
    02:00 +24°C° 0.3 mm 2 mps 751 mmHg 91%
    03:00 +24°C° 0.3 mm 2 mps 751 mmHg 91%
    04:00 +24°C° 0.3 mm 2 mps 751 mmHg 90%
    05:00 +24°C° 0 mm 2 mps 752 mmHg 87%
    06:00 +24°C° 0 mm 3 mps 752 mmHg 83%
    07:00 +24°C° 0 mm 3 mps 753 mmHg 80%
    08:00 +25°C° 0 mm 3 mps 753 mmHg 73%
    09:00 +27°C° 0 mm 4 mps 754 mmHg 67%
    10:00 +28°C° 0 mm 4 mps 754 mmHg 60%
    11:00 +29°C° 0 mm 4 mps 754 mmHg 58%
    12:00 +29°C° 0 mm 4 mps 753 mmHg 56%
    13:00 +30°C° 0 mm 5 mps 753 mmHg 54%
    14:00 +30°C° 0 mm 5 mps 752 mmHg 53%
    15:00 +30°C° 0 mm 5 mps 752 mmHg 53%
    16:00 +29°C° 0 mm 5 mps 752 mmHg 52%
    17:00 +29°C° 0 mm 4 mps 752 mmHg 56%
    18:00 +28°C° 0 mm 4 mps 753 mmHg 59%
    19:00 +27°C° 0 mm 3 mps 754 mmHg 62%
    20:00 +26°C° 0 mm 3 mps 754 mmHg 64%
    21:00 +26°C° 0 mm 3 mps 755 mmHg 65%
    22:00 +25°C° 0 mm 3 mps 755 mmHg 67%
    23:00 +25°C° 0 mm 3 mps 755 mmHg 68%
    Show more